Weather History for Kahului, HI

Change the Weather History Date:

Wednesday, May 7, 2014

  Actual Average Record
Temperature  
Mean Temperature 77 °F 75 °F  
Max Temperature 88 °F 84 °F 90 °F (2003)
Min Temperature 66 °F 66 °F 57 °F (1968)
Degree Days  
Heating Degree Days 0 0  
Month to date heating degree days 0 0  
Since 1 July heating degree days 0 0  
Cooling Degree Days 12 10  
Month to date cooling degree days 82 70  
Year to date cooling degree days 1192 996  
Growing Degree Days 27 (Base 50)    
Moisture  
Dew Point 67 °F    
Average Humidity 69    
Maximum Humidity 87    
Minimum Humidity 50    
Precipitation  
Precipitation 0.00 in 0.03 in 0.46 in (1985)
Month to date precipitation 0.10 0.24  
Year to date precipitation 13.03 9.00  
Snow  
Snow 0.00 in - - ()
Month to date snowfall 0.0  
Since 1 July snowfall 0.0  
Snow Depth 0.00 in    
Sea Level Pressure  
Sea Level Pressure 30.08 in    
Wind  
Wind Speed 6 mph (East)    
Max Wind Speed 20 mph    
Max Gust Speed 26 mph    
Visibility 10 miles    
Events      
T = Trace of Precipitation, MM = Missing Value Source: NWS Daily Summary

Daily Weather History Graph

Daily Weather History Graph

Search for Another Location

Airport:

Trip Planner

Search our weather history database for the weather conditions in past years. The results will help you decide how hot, cold, wet, or windy it might be!

Date:

Astronomy

May. 07, 2014 Rise Set
Actual Time 5:51 AM HST 6:52 PM HST
Civil Twilight 5:28 AM HST 7:16 PM HST
Nautical Twilight 5:00 AM HST 7:44 PM HST
Astronomical Twilight 4:32 AM HST 8:12 PM HST
Moon 12:58 PM HST (5/7) 1:04 AM HST (5/7)
Length of Visible Light 13h 48m
Length of Day
13h 01m
First Quarter, 57% of the Moon is Illuminated
May 7
First Quarter
May 14
Full
May 21
Last Quarter
May 28
New
Jun 5
First Quarter

Hourly Weather History & Observations

Time (HST) Temp. Heat Index Dew Point Humidity Pressure Visibility Wind Dir Wind Speed Gust Speed Precip Events Conditions
12:54 AM 71.1 °F - 66.0 °F 84% 30.08 in 10.0 mi Calm Calm - N/A   Scattered Clouds
1:54 AM 71.1 °F - 64.9 °F 81% 30.07 in 10.0 mi West 3.5 mph - N/A   Mostly Cloudy
2:54 AM 72.0 °F - 64.9 °F 78% 30.07 in 10.0 mi ESE 4.6 mph - N/A   Clear
3:54 AM 69.1 °F - 63.0 °F 81% 30.07 in 10.0 mi SE 5.8 mph - N/A   Clear
4:54 AM 66.0 °F - 63.0 °F 90% 30.09 in 10.0 mi SSE 3.5 mph - N/A   Clear
5:54 AM 66.9 °F - 63.0 °F 87% 30.10 in 10.0 mi SE 6.9 mph - N/A   Scattered Clouds
6:54 AM 71.1 °F - 64.0 °F 78% 30.11 in 10.0 mi SE 3.5 mph - N/A   Scattered Clouds
7:54 AM 75.9 °F - 66.0 °F 71% 30.12 in 10.0 mi Calm Calm - N/A   Mostly Cloudy
8:54 AM 79.0 °F - 66.9 °F 66% 30.12 in 10.0 mi NNW 5.8 mph - N/A   Mostly Cloudy
9:54 AM 82.9 °F 85.0 °F 66.0 °F 56% 30.11 in 10.0 mi North 5.8 mph - N/A   Mostly Cloudy
10:54 AM 84.9 °F 87.1 °F 66.0 °F 53% 30.09 in 10.0 mi NE 8.1 mph - N/A   Mostly Cloudy
11:54 AM 86.0 °F 88.2 °F 66.0 °F 51% 30.08 in 10.0 mi Variable 5.8 mph - N/A   Scattered Clouds
12:54 PM 88.0 °F 90.7 °F 66.9 °F 49% 30.07 in 10.0 mi North 10.4 mph - N/A   Scattered Clouds
1:54 PM 86.0 °F 89.4 °F 68.0 °F 55% 30.05 in 10.0 mi NE 18.4 mph 23.0 mph N/A   Mostly Cloudy
2:15 PM 87.8 °F 92.6 °F 69.8 °F 55% 30.03 in 10.0 mi NE 16.1 mph - N/A   Mostly Cloudy
2:54 PM 86.0 °F 89.4 °F 68.0 °F 55% 30.04 in 10.0 mi ENE 11.5 mph - N/A   Scattered Clouds
3:54 PM 84.9 °F 88.8 °F 69.1 °F 59% 30.04 in 10.0 mi NE 13.8 mph - N/A   Scattered Clouds
4:54 PM 82.0 °F 84.9 °F 68.0 °F 62% 30.03 in 10.0 mi NNE 10.4 mph - N/A   Scattered Clouds
5:54 PM 81.0 °F 83.3 °F 66.9 °F 62% 30.04 in 10.0 mi WSW 8.1 mph - N/A   Scattered Clouds
6:54 PM 78.1 °F - 68.0 °F 71% 30.07 in 10.0 mi WSW 4.6 mph - N/A   Scattered Clouds
7:54 PM 78.1 °F - 69.1 °F 74% 30.09 in 10.0 mi Calm Calm - N/A   Partly Cloudy
8:54 PM 75.9 °F - 69.1 °F 79% 30.11 in 10.0 mi East 4.6 mph - N/A   Scattered Clouds
9:54 PM 75.9 °F - 66.9 °F 74% 30.12 in 10.0 mi South 4.6 mph - N/A   Scattered Clouds
10:54 PM 73.0 °F - 69.1 °F 87% 30.12 in 10.0 mi SSE 4.6 mph - N/A   Partly Cloudy
11:54 PM 73.9 °F - 69.1 °F 85% 30.11 in 10.0 mi South 4.6 mph - N/A   Mostly Cloudy